Weather History for Provo, UT

Change the Weather History Date:

Friday, July 19, 2013

  Actual Average Record
Temperature  
Mean Temperature 80 °F -  
Max Temperature 96 °F 89 °F 102 °F (2005)
Min Temperature 64 °F 58 °F 42 °F (1987)
Cooling Degree Days 15    
Growing Degree Days 30 (Base 50)    
Moisture  
Dew Point 53 °F    
Average Humidity 48    
Maximum Humidity 73    
Minimum Humidity 14    
Precipitation  
Precipitation 0.00 in - - ()
Sea Level Pressure  
Sea Level Pressure 30.08 in    
Wind  
Wind Speed 5 mph (South)    
Max Wind Speed 13 mph    
Max Gust Speed -    
Visibility 12 miles    
Events      
Averages and records for this station are not official NWS values.
T = Trace of Precipitation, MM = Missing Value Source: NWS Daily Summary

Daily Weather History Graph

Daily Weather History Graph

Search for Another Location

Airport:

Trip Planner

Search our weather history database for the weather conditions in past years. The results will help you decide how hot, cold, wet, or windy it might be!

Date:

Astronomy

Jul. 19, 2013 Rise Set
Actual Time 6:13 AM MDT 8:52 PM MDT
Civil Twilight 5:41 AM MDT 9:24 PM MDT
Nautical Twilight 5:02 AM MDT 10:03 PM MDT
Astronomical Twilight 4:17 AM MDT 10:47 PM MDT
Moon 5:58 PM MDT (7/19) 2:58 AM MDT (7/19)
Length of Visible Light 15h 42m
Length of Day
14h 38m
Waxing Gibbous, 87% of the Moon is Illuminated
Jul 19
Waxing Gibbous
Jul 22
Full
Jul 29
Last Quarter
Aug 6
New
Aug 14
First Quarter

Hourly Weather History & Observations

Time (MDT) Temp. Heat Index Dew Point Humidity Pressure Visibility Wind Dir Wind Speed Gust Speed Precip Events Conditions
12:35 AM 75.2 °F - 57.2 °F 53% 30.10 in 10.0 mi SSW 3.5 mph - N/A   Clear
12:55 AM 71.6 °F - 59.0 °F 64% 30.10 in 10.0 mi SE 5.8 mph - N/A   Clear
1:15 AM 71.6 °F - 59.0 °F 64% 30.10 in 10.0 mi SE 4.6 mph - N/A   Clear
1:35 AM 71.6 °F - 55.4 °F 57% 30.10 in 10.0 mi SSE 6.9 mph - N/A   Clear
1:55 AM 73.4 °F - 55.4 °F 53% 30.10 in 10.0 mi Calm Calm - N/A   Clear
2:15 AM 71.6 °F - 53.6 °F 53% 30.10 in 10.0 mi SE 6.9 mph - N/A   Clear
2:35 AM 71.6 °F - 53.6 °F 53% 30.10 in 10.0 mi SE 6.9 mph - N/A   Clear
2:55 AM 71.6 °F - 55.4 °F 57% 30.10 in 10.0 mi SE 5.8 mph - N/A   Clear
3:15 AM 69.8 °F - 55.4 °F 60% 30.10 in 10.0 mi SE 5.8 mph - N/A   Clear
3:35 AM 66.2 °F - 55.4 °F 68% 30.10 in 10.0 mi East 6.9 mph - N/A   Clear
3:55 AM 69.8 °F - 53.6 °F 56% 30.10 in 10.0 mi SE 10.4 mph - N/A   Clear
4:15 AM 69.8 °F - 53.6 °F 56% 30.10 in 10.0 mi South 5.8 mph - N/A   Clear
4:35 AM 71.6 °F - 55.4 °F 57% 30.10 in 10.0 mi South 6.9 mph - N/A   Clear
4:55 AM 66.2 °F - 53.6 °F 64% 30.11 in 10.0 mi SSE 4.6 mph - N/A   Clear
5:15 AM 66.2 °F - 55.4 °F 68% 30.11 in 10.0 mi Calm Calm - N/A   Clear
5:35 AM 68.0 °F - 53.6 °F 60% 30.12 in 10.0 mi SE 5.8 mph - N/A   Clear
5:55 AM 71.6 °F - 53.6 °F 53% 30.12 in 9.0 mi SSE 5.8 mph - N/A   Clear
6:15 AM 69.8 °F - 51.8 °F 53% 30.13 in 10.0 mi SW 5.8 mph - N/A   Clear
6:35 AM 66.2 °F - 53.6 °F 64% 30.13 in 6.0 mi South 6.9 mph - N/A   Clear
6:56 AM 64.4 °F - 55.4 °F 73% 30.14 in 15.0 mi NNE 4.6 mph - N/A   Partly Cloudy
7:53 AM 69.8 °F - 57.2 °F 64% 30.14 in 15.0 mi Calm Calm - N/A   Partly Cloudy
8:55 AM 77.0 °F - 51.8 °F 41% 30.15 in 15.0 mi SSW 3.5 mph - N/A   Partly Cloudy
9:50 AM 78.8 °F - 53.6 °F 42% 30.15 in 15.0 mi Calm Calm - N/A   Partly Cloudy
10:59 AM 80.6 °F 80.3 °F 53.6 °F 39% 30.13 in 15.0 mi Variable 3.5 mph - N/A   Partly Cloudy
11:48 AM 84.2 °F 82.8 °F 53.6 °F 35% 30.13 in 15.0 mi Calm Calm - N/A   Partly Cloudy
12:50 PM 87.8 °F - 51.8 °F 29% 30.11 in 15.0 mi Variable 4.6 mph - N/A   Partly Cloudy
1:50 PM 89.6 °F - 51.8 °F 27% 30.09 in 15.0 mi Variable 4.6 mph - N/A   Partly Cloudy
2:50 PM 91.4 °F - 51.8 °F 26% 30.05 in 15.0 mi WSW 5.8 mph - N/A   Partly Cloudy
3:54 PM 93.2 °F 90.8 °F 53.6 °F 26% 30.03 in 15.0 mi WSW 8.1 mph - N/A   Partly Cloudy
4:55 PM 96.8 °F - 39.2 °F 14% 30.01 in 15.0 mi West 10.4 mph - N/A   Partly Cloudy
5:50 PM 96.8 °F - 44.6 °F 17% 29.99 in 15.0 mi WNW 11.5 mph - N/A   Partly Cloudy
6:57 PM 93.2 °F - 42.8 °F 17% 29.97 in 15.0 mi NW 8.1 mph - N/A   Partly Cloudy
7:49 PM 89.6 °F - 51.8 °F 27% 29.98 in 15.0 mi WNW 12.7 mph - N/A   Partly Cloudy
8:52 PM 82.4 °F 81.4 °F 53.6 °F 37% 29.99 in 15.0 mi Calm Calm - N/A   Partly Cloudy
9:15 PM 82.4 °F - 50.0 °F 32% 29.99 in 10.0 mi Calm Calm - N/A   Clear
10:15 PM 77.0 °F - 55.4 °F 47% 30.01 in 10.0 mi Calm Calm - N/A   Clear
10:35 PM 73.4 °F - 53.6 °F 50% 30.01 in 10.0 mi Calm Calm - N/A   Clear
10:55 PM 73.4 °F - 53.6 °F 50% 30.02 in 10.0 mi SE 3.5 mph - N/A   Clear
11:15 PM 73.4 °F - 53.6 °F 50% 30.02 in 10.0 mi SSE 8.1 mph - N/A   Clear
11:35 PM 71.6 °F - 51.8 °F 50% 30.02 in 10.0 mi SSE 8.1 mph - N/A   Clear
11:55 PM 71.6 °F - 51.8 °F 50% 30.02 in 10.0 mi SE 4.6 mph - N/A   Clear